Wind_Speed
35 44 47 43 43 48 52 53 48 41 38 38 38 39 41 42 41 40 41 41 36 31 32 33 32 32 32 31 31 29 27 26 25 25 24 24 24 25 25 25 25 25 25 24 25 26 29 31 31 31 31 30 29 28 27 26 25 25 25 24 23 22 21 19 18 17 16 16 15 15 15 15 14 14 13 12 12 13 15 16 17 17 16 16 15 14 15
34 44 48 42 41 45 50 51 45 42 42 43 42 42 43 42 41 39 39 39 35 33 35 36 34 32 32 32 32 29 26 24 22 21 21 22 24 25 26 25 25 26 27 26 27 28 30 30 30 30 30 29 29 28 26 25 25 25 25 24 23 22 21 20 19 18 17 17 16 15 15 15 14 14 13 11 11 12 13 14 14 14 13 14 13 11 13
35 44 48 43 41 44 49 49 46 46 48 43 38 38 42 44 41 38 37 37 34 33 36 37 35 33 33 33 32 30 28 26 24 21 18 18 21 23 27 27 27 27 29 29 29 29 30 30 30 30 29 29 29 27 26 25 24 25 25 24 24 23 22 21 20 18 18 17 16 15 15 15 15 15 13 11 11 11 12 12 12 12 12 11 10 8 8
39 43 47 45 43 44 47 49 48 47 44 38 35 38 44 44 39 36 36 35 32 31 34 38 38 37 35 33 29 27 27 28 27 25 21 19 19 20 24 29 30 29 29 30 30 30 30 30 29 29 29 29 29 27 25 24 25 25 25 25 24 24 23 22 20 19 19 18 16 15 15 16 16 15 13 11 11 12 12 12 12 11 11 11 10 9 7
44 43 45 47 47 45 44 46 45 41 39 37 36 39 44 43 38 34 32 31 29 30 33 36 39 38 33 28 25 24 25 25 26 26 25 24 22 21 22 26 30 30 30 31 31 31 30 28 28 29 29 29 28 27 26 25 26 26 26 26 25 25 24 23 21 21 20 18 16 15 16 16 16 16 14 13 12 12 13 12 12 11 11 11 10 10 9
45 44 45 48 48 46 44 45 43 39 38 36 36 41 42 38 36 34 30 28 30 31 32 34 36 34 29 25 22 21 21 21 21 22 23 24 24 24 23 25 29 31 31 32 32 30 28 28 29 30 30 30 29 28 27 27 26 27 27 26 26 26 25 24 23 22 20 17 16 16 16 16 17 16 15 14 13 13 13 13 12 12 11 10 9 9 9
46 47 46 48 49 47 44 42 40 39 39 36 38 41 33 28 35 36 29 28 31 31 31 33 32 29 26 25 23 20 19 18 18 19 21 22 23 24 24 26 28 29 29 30 31 30 29 30 31 31 31 31 30 29 29 28 27 27 27 27 27 27 26 25 24 22 20 17 16 16 16 17 17 16 16 14 13 13 13 13 13 13 11 11 10 8 7
45 47 47 48 47 43 39 36 37 40 41 38 40 37 25 25 37 38 29 29 32 30 29 30 29 28 26 25 24 22 21 19 18 19 20 21 24 25 25 26 28 30 30 31 32 33 33 32 32 32 32 31 30 30 30 29 29 28 28 28 28 27 26 26 24 22 19 18 17 16 17 17 16 16 15 14 13 13 14 15 15 15 14 13 11 10 9
42 46 48 48 46 41 34 31 35 41 44 44 39 30 25 31 39 37 32 31 31 30 28 27 28 28 27 27 26 24 23 21 21 21 21 21 24 26 28 29 30 32 33 33 34 35 35 35 34 33 32 31 30 31 31 30 30 29 29 28 27 26 26 26 24 21 19 18 17 17 17 17 16 15 14 14 14 15 16 17 17 17 15 14 13 12 11
37 43 47 48 48 44 34 28 34 41 44 43 35 26 28 37 38 35 34 30 28 31 31 29 30 30 29 29 28 28 26 25 24 23 23 23 25 28 31 32 33 33 33 32 34 35 34 33 32 31 30 30 30 31 31 31 30 29 28 27 26 27 27 26 25 22 20 19 19 19 18 16 15 14 14 15 15 16 17 18 18 17 15 14 13 13 13
29 37 43 46 49 48 37 31 36 39 36 32 27 25 33 40 37 33 32 28 27 31 34 33 33 32 31 31 30 30 30 29 28 25 24 26 27 28 30 30 30 32 32 31 31 32 31 29 29 29 29 29 30 30 30 30 30 30 29 28 27 29 29 28 27 25 23 21 21 21 18 15 14 14 15 15 15 16 17 17 17 17 15 13 13 14 14
22 30 38 43 46 47 41 35 37 38 32 26 24 26 33 40 37 31 28 27 29 32 33 33 32 30 30 30 30 30 30 32 32 28 24 25 25 25 27 28 29 31 31 31 30 29 27 27 27 27 28 29 30 29 29 29 30 30 29 29 30 33 33 31 31 28 25 23 23 21 18 15 14 14 14 14 14 15 16 16 17 16 15 14 13 14 14
20 28 35 40 41 43 43 40 39 39 36 31 27 25 29 36 35 28 24 25 28 30 30 30 29 27 26 26 26 27 29 31 33 30 26 25 24 25 27 30 32 29 26 27 29 27 25 25 25 26 26 28 30 31 31 31 30 30 29 28 32 36 35 34 32 28 26 25 24 21 18 16 15 14 14 14 14 14 15 16 17 16 15 14 14 14 15
22 29 32 35 37 40 42 41 40 40 37 34 31 27 26 31 32 27 23 22 22 24 26 27 26 25 24 23 22 23 24 27 29 29 28 27 28 29 29 30 31 27 23 22 25 24 23 24 25 27 27 28 29 30 30 29 28 29 29 29 35 40 37 33 30 28 27 27 24 21 19 16 14 14 13 13 14 15 16 17 17 17 16 16 16 16 16
24 28 28 30 33 37 39 40 41 41 38 34 33 31 29 31 31 29 25 22 22 22 24 26 28 28 27 26 23 21 21 23 25 26 24 24 27 30 28 26 27 26 22 21 21 22 23 23 23 25 26 25 25 26 27 27 26 28 30 33 41 42 34 29 29 30 31 29 25 22 19 16 14 14 13 13 14 15 17 18 19 19 18 17 17 17 17
22 24 24 26 29 33 36 39 41 42 39 34 31 31 31 31 31 30 28 26 25 24 23 25 27 28 27 28 27 23 21 22 24 24 22 21 24 26 23 21 24 25 23 21 19 19 21 22 21 23 23 23 21 22 26 28 27 28 30 35 42 40 30 26 31 35 34 30 24 21 18 14 13 13 13 14 15 17 18 20 20 20 20 18 18 18 18
17 20 21 24 27 29 31 35 38 40 40 35 29 28 29 30 31 31 30 29 26 24 23 22 22 21 20 20 21 21 20 23 26 26 25 24 24 24 22 20 22 23 21 20 18 17 17 17 18 21 21 20 19 20 23 26 26 27 30 35 38 35 29 27 30 31 30 26 21 17 15 13 12 13 13 14 15 17 19 20 21 21 20 20 19 19 20
13 17 19 21 24 26 27 30 33 36 37 35 31 28 27 30 31 30 29 28 27 25 25 23 20 20 18 15 17 17 17 22 26 25 25 27 25 23 22 19 19 19 19 18 18 18 17 15 16 17 18 19 19 21 22 23 22 23 28 32 33 31 29 27 24 18 17 16 14 13 13 12 12 12 13 13 15 17 18 19 20 21 21 20 21 22 22
15 18 20 20 20 22 23 26 29 32 33 34 33 30 28 30 31 29 27 27 27 25 25 23 21 22 20 18 19 18 16 20 22 18 17 20 21 19 18 17 17 18 18 18 18 19 18 18 17 16 16 16 17 19 20 20 20 21 23 27 30 30 30 29 21 11 8 9 11 12 12 13 13 13 13 14 15 16 18 19 20 21 21 21 21 22 24
14 16 18 18 18 19 19 21 25 28 30 32 32 31 29 31 33 31 28 27 26 24 24 22 21 23 23 20 20 20 18 20 20 14 11 14 16 16 16 16 16 17 18 19 18 18 18 18 18 18 17 16 16 16 16 16 17 18 19 22 26 28 31 30 23 15 12 12 13 14 14 15 15 15 15 15 17 18 19 20 21 21 21 22 22 23 24
8 11 13 13 14 16 18 20 23 26 29 31 32 30 30 31 33 34 31 26 22 22 24 25 22 22 24 23 20 19 18 17 16 13 11 11 13 13 14 15 16 17 19 19 18 18 17 17 18 19 19 18 17 17 17 17 17 17 16 18 21 27 32 31 26 21 19 17 17 17 17 17 18 18 17 18 19 21 22 22 22 22 22 22 23 24 25
8 11 11 10 10 11 15 19 22 25 28 31 32 31 30 30 31 33 33 29 23 20 23 27 25 21 21 21 19 18 16 15 14 12 11 10 11 11 12 13 14 15 16 16 16 16 16 16 17 18 19 19 18 18 19 20 21 21 19 18 20 24 28 28 25 23 21 19 19 20 19 19 19 19 19 20 21 22 23 24 24 24 24 24 24 25 26
8 9 7 8 8 8 9 12 16 20 25 28 31 31 30 29 30 32 34 33 28 22 20 24 25 22 20 20 18 17 16 15 15 13 12 11 11 11 12 12 12 13 13 13 13 13 13 14 14 16 18 19 19 19 19 19 21 22 22 22 22 23 25 26 25 23 21 19 20 21 21 21 21 22 23 23 23 24 25 27 27 27 27 26 26 27 28
5 5 6 8 10 9 9 10 14 18 21 25 28 31 30 30 30 32 33 34 32 28 23 22 21 20 21 21 21 19 18 17 17 17 16 15 14 14 14 14 14 14 14 14 13 13 13 14 14 15 16 17 18 19 19 18 18 19 20 22 23 24 25 25 26 25 24 23 24 24 24 25 26 26 26 26 26 27 28 29 30 30 29 29 29 29 30
4 5 7 10 11 10 8 9 12 16 19 20 23 27 30 30 30 30 32 34 34 31 27 23 20 19 21 24 24 22 20 19 19 19 19 18 18 18 18 18 18 18 17 17 17 16 16 16 16 17 17 17 17 18 18 19 18 19 19 21 22 23 24 24 25 26 27 27 28 28 28 29 29 29 29 30 30 30 31 32 32 33 32 32 32 32 32
6 7 8 10 10 7 5 6 8 12 16 18 19 21 25 26 26 27 30 32 32 31 28 24 20 18 20 23 26 25 23 21 21 21 21 21 21 21 21 21 21 21 21 20 20 20 20 20 20 19 19 19 19 19 20 20 21 21 22 22 23 24 25 26 27 28 29 30 30 31 31 31 31 32 32 33 33 33 33 33 34 34 34 34 35 34 34
7 8 9 9 9 7 5 6 6 8 11 14 16 17 19 21 22 23 26 27 28 27 27 26 24 21 18 18 21 23 24 24 24 24 23 23 23 23 23 22 23 23 23 23 23 24 24 24 23 23 23 23 23 22 22 22 23 23 24 25 26 27 28 29 30 30 31 32 32 33 33 33 33 34 34 34 35 35 35 35 35 36 36 36 37 37 36
7 8 10 10 9 7 6 6 7 7 9 11 13 15 16 17 18 19 21 23 23 23 23 26 28 27 23 19 18 18 20 22 24 25 25 25 25 25 25 25 25 25 26 26 26 27 27 26 26 26 26 26 26 26 25 25 25 25 25 26 27 28 29 30 30 31 32 32 32 33 33 33 34 34 35 35 36 36 37 37 38 38 38 38 39 38 38
8 8 9 10 8 7 7 7 7 7 9 10 12 13 13 14 15 15 16 18 19 19 21 23 26 27 26 23 20 18 18 20 22 23 25 26 26 27 27 27 27 27 28 28 28 28 28 28 27 27 27 27 27 27 26 26 26 26 26 26 27 27 28 29 30 30 31 31 32 32 32 32 33 33 34 35 36 37 38 38 39 40 40 40 40 40 40
9 8 8 7 7 7 6 6 5 5 7 9 11 12 12 12 13 13 13 14 15 16 17 19 22 25 25 23 20 18 19 20 21 22 23 25 26 27 28 28 28 28 28 28 28 28 28 28 28 27 27 27 27 27 27 27 28 28 28 28 28 28 28 29 29 30 30 31 31 31 32 32 33 33 34 35 36 37 38 38 39 40 41 41 41 41 42
10 9 8 7 6 6 6 6 6 5 5 7 9 11 11 12 12 11 12 13 13 14 15 17 19 22 23 22 19 18 19 21 21 21 21 22 23 25 25 26 26 26 27 27 27 27 27 27 27 27 27 27 27 27 28 28 28 29 29 29 29 28 29 29 29 30 30 30 31 31 32 32 33 33 34 35 36 37 38 38 38 39 40 41 41 42 42
12 12 11 10 10 10 10 9 8 7 7 7 8 10 11 11 11 11 11 11 12 13 14 15 17 18 19 19 18 18 18 19 20 20 21 21 22 23 23 23 24 25 25 26 26 26 27 27 27 27 27 26 27 27 28 28 28 28 28 28 28 27 28 28 28 29 29 29 30 31 31 32 32 33 33 33 34 35 36 37 37 38 39 40 40 40 41
12 12 13 14 14 14 13 12 10 10 10 10 10 10 10 11 11 11 11 11 11 11 12 13 14 16 16 17 17 17 18 18 19 19 20 20 21 21 22 22 22 23 24 25 26 26 26 26 26 25 25 25 25 25 25 25 26 26 25 26 26 26 26 27 27 28 28 28 29 30 30 31 31 31 32 32 32 33 34 34 34 35 36 37 37 38 40
12 11 12 14 15 16 14 13 12 12 12 13 14 13 13 12 12 12 12 12 12 12 12 13 14 15 16 16 17 17 18 18 18 19 19 20 20 20 20 21 21 22 22 23 24 24 24 24 24 23 23 23 23 23 23 23 24 24 24 24 25 25 26 27 27 28 28 28 29 29 30 30 30 30 31 31 31 31 32 32 30 31 34 35 35 36 37
12 11 11 13 15 16 15 14 13 13 13 14 15 15 15 15 15 15 15 14 14 14 14 14 15 15 16 17 17 18 18 18 19 19 19 19 19 19 19 20 21 21 22 22 23 23 23 22 23 23 23 23 23 23 24 24 24 24 25 25 25 26 26 27 27 28 28 28 29 29 30 30 30 30 30 30 30 30 31 31 31 32 35 36 35 35 35
14 13 12 12 14 15 15 15 14 14 14 14 15 15 15 15 16 16 16 16 17 17 16 16 17 17 17 17 18 18 18 19 20 20 19 19 19 20 20 20 21 22 22 23 22 23 23 23 24 24 24 24 25 25 26 26 26 27 27 27 27 27 27 27 28 28 28 28 28 28 28 29 30 30 30 29 28 28 29 31 32 32 33 34 35 35 34
14 15 14 14 14 15 16 15 15 15 15 15 15 15 15 15 15 16 16 16 16 17 16 16 17 17 17 18 18 18 19 19 20 20 20 20 20 20 20 21 22 23 24 23 23 23 24 25 25 25 25 25 25 26 27 27 27 27 27 28 28 28 28 28 28 29 29 28 28 27 26 26 27 28 28 27 26 27 28 29 30 31 31 32 33 33 32
13 14 14 14 15 15 16 16 16 15 15 15 14 14 15 15 15 15 15 15 15 15 15 15 16 16 17 17 17 18 18 19 19 20 20 20 20 21 21 21 22 23 24 24 23 24 24 25 25 25 25 25 26 26 26 27 27 27 27 28 27 28 28 28 28 28 29 28 27 26 24 22 23 23 24 24 25 26 26 26 26 26 27 28 28 28 28
11 12 13 14 14 14 15 15 15 15 14 14 14 14 14 15 15 15 14 14 15 15 15 15 15 15 16 16 17 17 17 18 18 19 19 20 20 21 21 21 21 22 24 24 24 24 24 25 25 25 25 25 25 25 26 26 26 26 26 27 27 27 27 27 27 27 28 28 27 26 23 22 21 21 21 21 21 22 23 22 22 23 24 24 23 23 22
12 13 13 13 13 13 13 13 13 13 13 13 13 13 13 14 13 13 14 14 14 15 15 14 14 14 15 15 15 16 16 16 17 17 18 19 19 19 20 20 21 22 23 23 23 23 24 24 24 24 25 25 25 25 25 25 25 26 26 26 26 26 26 26 26 26 26 26 25 25 25 24 23 23 22 20 19 19 19 20 20 19 19 19 19 18 17
13 13 14 14 13 13 13 12 12 13 13 13 13 13 13 13 13 13 13 13 14 14 14 14 13 13 14 14 14 15 15 15 16 16 17 17 18 18 19 20 20 21 22 22 23 23 24 24 24 25 25 26 26 26 26 27 27 27 27 27 27 26 26 26 25 25 25 25 24 24 24 25 25 25 24 23 20 17 15 15 14 14 15 15 16 16 16
13 14 14 14 14 13 13 12 12 12 13 13 14 13 13 13 13 13 13 14 14 14 14 13 13 13 13 13 13 13 13 14 14 14 15 15 16 17 18 18 19 20 21 21 22 22 23 24 24 25 25 26 27 27 27 28 28 28 28 28 28 28 27 27 26 26 25 25 24 24 24 23 23 23 23 22 20 16 13 11 11 12 14 15 16 17 18
13 14 14 14 13 13 13 12 12 12 12 13 13 14 13 13 13 13 13 14 14 13 13 12 11 11 11 11 11 11 11 12 12 13 14 15 16 17 18 19 20 20 21 22 23 24 24 25 25 25 25 26 26 27 27 27 28 28 28 28 28 28 28 28 28 27 27 26 25 25 24 23 23 22 22 21 20 19 17 16 16 16 16 17 18 18 19
13 14 14 13 13 13 12 12 11 11 12 12 13 13 13 13 13 13 13 13 12 12 11 11 10 9 9 9 9 10 11 12 13 14 15 16 17 18 20 21 22 22 24 24 25 25 26 26 26 26 26 26 26 26 26 26 27 27 27 27 27 27 27 27 27 27 28 27 26 26 25 24 23 22 22 21 21 21 21 22 22 22 23 23 22 22 22
13 13 13 13 12 12 12 12 11 11 12 12 13 13 13 13 13 13 12 12 11 11 10 9 9 9 9 9 9 10 11 12 13 14 15 16 18 18 20 21 22 23 24 24 24 25 25 25 25 25 25 25 25 25 24 24 24 24 25 25 24 24 24 23 22 23 24 25 25 24 23 22 22 22 22 22 22 22 23 23 23 23 23 24 25 25 25
13 13 13 13 12 12 12 12 12 12 12 13 13 13 13 13 13 13 12 11 11 10 9 9 9 8 8 9 9 10 11 11 12 13 15 16 17 18 19 21 22 23 23 24 24 24 25 25 25 25 25 24 24 24 23 22 21 21 21 21 21 20 19 18 17 17 17 19 20 20 20 20 21 23 24 24 25 25 25 26 25 25 25 26 28 28 28
13 13 13 13 12 12 12 12 12 13 13 13 14 13 13 13 13 13 12 11 11 10 9 9 8 8 8 9 9 9 10 11 11 13 14 15 17 18 19 21 22 23 23 24 25 25 25 25 25 25 24 24 24 23 23 22 21 20 19 19 18 18 17 17 17 17 17 17 18 19 20 20 21 22 23 24 25 26 26 27 27 27 28 28 28 29 28
14 13 13 13 12 12 12 13 13 13 13 14 14 13 13 13 13 13 12 11 10 9 9 9 9 9 9 9 9 9 9 10 11 13 14 15 16 18 19 21 22 23 24 25 25 25 25 25 26 25 25 24 24 24 23 22 21 21 21 20 20 19 19 19 19 20 20 20 21 21 22 22 22 22 22 22 24 25 26 27 28 28 28 28 27 26 26
14 14 13 13 12 12 12 13 13 14 14 14 14 14 14 14 14 13 12 11 10 9 9 9 9 10 9 9 9 9 10 11 12 13 14 16 17 18 19 21 22 23 24 25 25 25 25 25 25 26 25 25 25 25 24 23 22 23 23 23 23 22 22 21 22 22 23 23 24 23 23 23 23 23 22 23 24 26 28 29 30 30 29 27 27 26 25
15 14 14 14 13 13 13 13 14 14 14 15 15 16 16 15 15 14 13 12 11 10 10 10 10 10 10 10 10 11 12 12 13 14 15 17 18 19 20 21 22 23 24 25 25 25 25 25 26 26 26 26 26 26 26 25 25 25 25 25 25 24 23 23 24 24 24 24 24 24 23 23 23 23 23 24 25 26 27 27 28 27 26 26 25 25 23
15 14 14 14 14 13 13 14 14 15 15 16 17 18 17 17 16 15 14 12 12 11 11 11 12 12 12 12 12 12 13 14 15 16 17 18 19 20 21 21 22 23 24 24 24 25 25 25 25 26 26 27 27 27 27 27 27 27 27 27 26 25 25 25 26 26 25 25 24 24 24 24 24 24 23 23 24 25 26 25 24 23 23 23 24 24 22
15 15 15 15 14 14 14 15 16 16 16 17 18 19 19 18 17 16 15 13 12 12 12 13 13 13 13 14 14 14 14 15 16 17 17 19 20 21 22 22 23 23 23 24 24 24 24 24 24 25 25 26 27 28 28 28 27 27 28 28 27 26 26 26 26 26 25 25 25 25 25 24 24 23 22 21 21 23 24 24 22 21 21 22 24 23 22
Wind_Direction
169 174 175 170 171 174 176 177 175 169 171 177 180 183 190 196 197 195 192 189 187 187 186 187 190 192 192 196 203 208 210 212 216 220 222 221 217 213 210 208 207 207 208 206 203 205 211 217 220 222 224 226 228 230 230 228 228 228 229 233 236 239 242 246 251 255 258 261 261 264 267 269 274 280 284 290 298 310 318 321 324 325 317 306 296 273 250
167 174 175 170 168 169 171 172 171 171 176 177 175 176 180 183 185 187 190 191 191 188 188 192 196 198 199 202 206 209 209 210 213 217 218 220 220 217 212 209 207 208 209 208 206 208 213 217 220 222 224 226 228 229 229 229 229 229 231 236 240 244 247 250 255 259 260 261 261 263 263 263 268 274 276 282 293 306 316 322 327 330 324 318 314 289 261
167 174 174 170 168 166 166 167 169 175 179 177 173 172 172 172 172 174 178 183 189 192 192 194 195 196 201 207 212 215 216 215 215 216 218 220 222 218 211 207 207 209 211 211 210 212 215 217 219 221 224 226 228 229 229 229 229 229 232 238 242 247 251 254 258 260 260 260 261 260 259 259 264 269 270 273 283 294 306 315 323 328 326 325 327 313 284
167 173 174 171 169 167 164 166 172 179 180 175 171 167 167 170 170 170 173 178 187 197 198 194 191 193 201 208 213 215 216 218 220 219 220 222 225 222 215 210 209 208 210 212 213 215 217 218 219 221 224 227 228 229 229 228 229 230 233 239 244 249 253 256 259 259 258 258 257 255 255 256 260 264 265 266 272 281 291 301 312 320 325 328 333 333 325
166 168 172 172 171 169 168 172 179 181 176 171 168 164 166 171 173 175 177 177 182 192 192 188 187 192 199 204 206 207 207 211 217 219 220 221 222 221 217 214 213 211 211 213 214 216 218 218 219 221 224 226 227 228 228 227 228 231 234 239 244 249 253 255 256 256 255 253 250 247 249 251 255 259 260 261 266 273 282 291 301 310 317 325 333 338 339
170 166 169 173 174 175 178 181 182 178 172 171 167 164 168 174 178 181 181 177 179 185 187 185 185 190 195 196 196 197 196 199 204 207 211 214 217 217 213 211 212 213 214 216 215 216 218 218 219 221 223 225 226 226 227 227 228 231 235 239 245 248 251 252 252 251 250 247 242 240 242 245 249 254 258 261 266 273 280 287 295 301 306 311 319 329 336
174 169 170 173 176 180 183 183 178 173 173 172 167 166 172 182 184 183 182 178 176 178 183 186 186 187 189 191 195 199 200 202 200 200 203 206 209 214 213 211 210 211 219 224 219 214 216 218 220 222 223 225 226 227 228 228 228 231 235 239 244 246 248 248 247 245 244 240 236 234 236 240 245 251 257 262 267 273 279 285 290 294 296 299 304 309 312
173 170 172 176 178 180 182 179 172 170 172 173 171 173 181 187 183 182 185 183 177 175 178 181 183 186 189 194 201 209 214 217 214 211 211 207 206 211 214 215 212 208 216 226 224 218 218 218 219 221 224 225 226 228 230 230 230 232 235 238 241 243 243 242 240 238 237 235 232 231 234 239 245 250 255 260 266 271 276 281 284 286 288 289 294 295 292
172 173 176 178 180 181 180 177 173 170 171 174 178 181 188 188 184 186 188 185 184 185 185 184 187 192 197 202 208 215 221 226 227 227 227 221 216 213 213 217 217 210 212 222 225 221 219 218 219 222 224 225 227 229 232 233 233 234 234 236 238 238 236 235 232 232 232 232 231 232 235 239 243 247 252 257 264 270 275 279 282 284 284 284 285 286 284
175 178 178 180 183 183 179 175 175 171 169 174 181 186 188 189 189 190 190 190 195 198 196 195 197 200 205 210 214 219 224 230 232 232 235 233 225 218 215 215 217 214 217 225 227 223 219 220 222 223 225 227 229 231 234 236 236 235 234 234 232 230 227 227 226 227 230 231 231 232 234 236 240 246 253 258 263 268 274 278 281 284 285 283 280 279 277
179 182 181 183 186 187 183 177 176 174 171 175 185 186 185 187 189 191 193 196 198 197 198 201 203 205 210 214 217 221 225 229 228 229 234 232 224 221 220 220 221 223 225 227 226 223 223 225 228 231 234 235 235 236 238 240 240 238 232 227 221 218 219 222 224 227 230 230 229 230 231 234 241 250 256 261 265 268 273 277 280 283 285 283 279 276 275
182 183 184 185 188 190 190 186 183 184 185 189 193 186 183 186 188 189 192 194 193 194 199 205 207 208 211 214 218 220 223 224 221 220 224 223 219 219 221 225 228 229 225 222 222 223 224 225 229 234 237 239 240 241 241 241 241 236 229 224 220 217 217 219 223 228 230 227 225 226 228 233 243 252 257 262 266 270 273 277 280 281 282 281 279 276 275
179 178 182 186 189 191 192 193 193 193 196 200 200 190 185 187 190 190 189 189 190 194 200 205 208 209 208 210 214 216 218 220 218 218 221 222 221 221 223 227 228 224 216 214 219 222 221 221 223 227 232 237 238 238 236 235 232 227 223 224 224 221 218 219 223 229 227 221 218 221 227 237 246 251 254 258 263 269 273 276 278 279 279 277 276 276 275
169 171 175 183 189 190 191 194 196 196 199 202 202 199 195 197 200 203 204 201 199 201 203 205 206 204 201 204 209 211 214 217 217 219 223 226 225 223 225 227 222 212 203 208 217 221 221 220 220 222 230 235 234 232 232 230 225 221 217 215 218 221 220 219 221 222 218 213 212 219 229 240 246 248 251 254 257 263 268 272 274 275 275 273 272 273 274
165 169 174 183 191 193 193 193 193 194 196 198 199 201 202 204 207 211 217 222 223 222 220 217 216 216 216 218 218 217 216 216 214 214 216 217 215 214 217 221 213 202 198 205 211 214 218 222 223 223 230 237 236 232 230 228 229 229 221 213 213 218 221 220 216 213 209 207 209 220 230 238 243 246 250 251 254 259 263 267 269 270 270 269 268 270 271
167 176 181 186 191 195 197 196 194 194 194 193 193 197 199 202 206 211 218 224 227 229 227 224 222 223 226 228 227 223 220 216 213 209 205 202 198 195 198 207 207 203 205 208 207 208 214 220 223 225 230 235 235 228 223 223 231 235 226 216 212 215 222 223 216 212 210 208 211 221 228 233 239 245 249 252 254 258 261 264 267 268 268 267 266 267 269
167 178 182 185 188 191 195 196 195 197 197 196 194 195 197 201 205 210 216 218 218 220 221 222 221 216 216 221 220 218 219 217 213 211 209 209 209 207 207 211 207 204 209 214 213 211 214 217 219 223 227 230 231 231 228 227 231 232 225 217 214 218 226 222 215 218 222 220 218 222 226 232 240 245 250 254 257 261 263 265 267 268 269 268 265 265 267
159 170 175 181 187 190 192 194 195 197 200 202 201 200 200 202 204 208 212 213 214 217 220 222 217 208 206 206 197 194 201 205 208 214 216 219 225 226 223 222 217 211 214 220 222 222 223 224 222 223 225 228 231 234 234 232 231 227 219 215 219 225 223 211 207 222 232 226 222 223 226 234 241 242 247 254 261 265 266 267 269 272 272 270 267 266 267
161 170 174 177 184 191 195 197 198 198 199 202 205 206 207 206 206 208 211 212 214 217 220 222 217 209 210 208 196 192 193 192 196 205 211 212 220 223 219 219 221 219 220 224 227 229 231 232 231 231 233 234 232 231 230 230 228 225 223 225 228 225 213 202 204 230 254 241 233 230 230 238 243 243 248 257 265 268 267 268 272 276 276 274 270 267 266
149 164 173 178 185 192 196 198 200 200 199 199 202 206 210 209 208 209 210 212 214 214 216 220 217 212 214 214 206 205 207 201 202 210 209 204 212 219 222 225 227 226 228 230 231 233 234 235 236 239 243 244 240 236 234 232 228 228 235 239 233 219 206 203 215 247 274 265 245 235 235 239 241 243 252 263 271 272 270 270 274 277 278 276 271 267 265
115 141 159 169 179 187 189 190 196 201 201 199 200 205 209 209 209 211 211 210 210 210 212 216 215 211 213 217 214 213 216 218 224 233 231 222 220 225 232 236 236 236 239 241 240 241 241 240 240 244 248 250 247 242 239 239 240 242 246 243 229 216 209 212 227 256 276 270 252 242 241 238 235 240 252 265 272 272 270 271 273 275 275 273 270 268 266
103 127 146 155 161 173 180 185 194 200 200 199 202 208 211 209 209 212 214 211 208 207 210 214 213 209 209 216 221 224 226 232 240 244 243 239 237 239 242 245 245 248 250 252 252 252 251 249 247 248 252 256 256 253 248 248 252 255 255 248 236 226 224 228 243 263 272 266 255 249 244 238 237 245 258 267 269 269 268 270 271 273 272 269 267 266 266
107 118 138 149 147 151 162 172 182 187 190 196 203 209 211 210 209 213 215 215 215 215 211 208 208 207 208 215 223 228 230 233 237 241 243 242 242 245 248 248 250 252 254 255 257 256 256 256 255 254 255 258 260 260 258 256 255 255 255 253 250 246 245 249 258 263 262 257 253 251 249 248 251 258 264 265 264 265 266 268 269 270 269 266 264 263 264
103 108 119 130 132 134 146 162 171 175 180 191 200 205 208 210 212 214 216 217 219 222 221 217 215 215 217 220 224 227 228 229 230 232 236 240 241 244 248 250 252 252 252 254 255 255 255 257 257 257 256 257 259 262 263 262 259 255 254 253 254 254 254 256 259 261 261 260 259 258 259 261 262 264 265 263 261 262 263 264 266 267 266 264 262 260 261
125 130 127 133 136 132 135 159 182 188 190 194 198 201 205 209 213 215 217 219 220 222 225 226 226 226 227 227 227 228 228 227 226 226 228 234 239 243 246 249 251 252 254 255 256 258 259 259 260 260 258 257 257 258 258 258 257 254 252 251 252 254 254 255 256 257 259 261 262 263 264 264 265 265 265 264 262 261 260 261 263 263 263 262 261 259 259
134 148 148 147 149 144 137 156 184 199 204 205 204 204 206 211 214 216 216 216 218 220 222 222 220 224 228 228 228 229 230 231 231 230 228 230 234 239 243 246 249 252 255 257 259 261 263 264 265 265 265 264 262 260 258 257 256 255 254 253 253 253 254 255 255 256 257 259 260 262 263 263 263 263 262 263 263 262 260 259 260 261 261 261 260 259 259
130 154 164 160 153 148 148 156 169 188 201 208 211 212 213 215 217 217 215 215 218 222 223 220 218 221 228 228 227 231 233 235 237 238 236 234 235 237 240 244 249 253 256 258 261 263 264 266 267 267 268 268 268 266 265 263 261 259 258 258 257 257 257 258 258 258 259 259 260 261 261 262 262 261 261 261 261 261 260 259 258 259 260 260 260 261 260
132 152 167 170 162 151 147 155 167 178 188 198 207 213 218 220 222 221 220 222 226 227 225 222 222 227 233 234 234 237 238 237 237 240 241 242 243 243 244 246 249 253 256 259 261 263 264 265 266 266 267 267 267 267 267 266 264 263 262 260 260 259 259 259 260 260 260 261 261 261 262 261 261 261 261 261 261 260 260 259 259 259 260 260 261 262 262
129 139 154 164 166 160 153 154 166 179 189 197 204 210 216 221 226 227 226 228 231 230 228 227 228 233 238 240 241 243 243 240 238 239 241 244 246 248 249 250 251 253 255 256 258 260 261 262 264 264 265 266 266 267 268 268 268 268 267 267 266 265 264 263 262 262 262 262 262 262 262 262 262 262 262 262 262 262 261 259 259 259 260 261 262 263 264
143 140 147 158 165 163 157 151 155 173 187 193 198 205 211 215 217 220 221 222 224 225 226 227 228 232 236 238 240 241 240 238 238 238 240 243 246 248 250 251 252 253 255 256 257 258 259 259 261 263 264 266 267 268 269 271 272 273 273 272 271 270 268 267 265 264 263 263 263 263 264 264 264 264 264 263 263 263 263 262 261 261 261 262 263 264 265
175 166 169 182 191 195 194 184 175 183 194 190 187 192 202 208 210 212 214 216 217 219 221 221 222 225 228 231 233 235 234 233 234 236 238 242 245 248 249 251 253 254 256 257 259 259 260 261 262 263 265 267 269 270 272 273 274 275 275 275 274 273 272 270 269 267 266 265 264 264 265 265 266 266 265 265 264 263 263 263 262 262 262 263 264 265 266
199 191 195 207 216 221 222 217 205 203 212 212 201 194 196 203 209 211 213 215 217 220 221 221 221 221 222 225 227 229 229 231 234 237 240 243 246 249 251 254 257 259 260 262 263 264 265 266 267 268 270 271 272 274 275 275 275 276 276 276 276 275 274 273 272 271 270 269 268 267 266 266 266 266 266 265 265 265 265 264 263 263 263 263 265 266 267
210 205 205 212 221 226 228 227 222 218 219 225 226 220 212 211 213 216 218 220 221 221 222 223 223 223 223 225 227 230 232 235 238 241 244 246 248 251 254 257 259 262 263 265 267 268 269 270 271 272 272 273 273 273 274 274 275 275 275 275 275 274 274 274 273 273 272 272 271 270 269 268 267 267 266 266 265 265 265 265 266 266 265 264 265 267 269
212 208 206 211 220 227 229 227 226 225 226 229 233 233 231 229 227 225 226 227 227 227 227 228 227 228 228 230 232 235 237 239 241 244 247 250 252 254 257 258 259 261 262 264 266 267 269 271 272 273 273 273 272 272 272 272 273 274 274 274 274 274 273 273 273 273 273 272 272 272 272 271 270 269 268 267 267 266 266 266 265 265 266 267 269 271 272
211 206 204 208 216 224 229 229 227 227 229 232 236 238 239 239 238 237 236 235 234 233 233 232 232 233 234 235 236 238 240 242 245 247 249 252 254 256 257 259 261 262 263 265 267 269 270 271 272 272 272 272 273 273 273 272 272 272 272 272 273 273 273 273 273 273 273 273 273 273 274 274 274 273 272 270 269 268 268 268 266 264 266 270 272 273 274
217 214 213 213 216 221 225 227 227 227 229 232 236 239 241 242 243 243 242 241 240 238 236 234 234 235 237 238 239 240 242 245 248 250 251 253 254 255 257 260 261 262 263 265 266 267 268 268 268 268 269 270 271 272 272 272 272 272 272 272 272 272 272 273 274 274 275 275 276 276 276 276 276 275 276 276 274 272 270 270 269 269 270 273 275 275 276
222 222 223 223 221 220 222 224 225 226 228 230 233 238 241 243 244 244 244 243 244 242 240 238 236 236 237 240 241 241 243 245 248 250 252 254 255 257 259 262 264 265 266 266 267 267 267 267 268 268 269 269 270 271 271 272 272 272 273 273 273 273 273 273 274 274 275 276 277 278 278 277 276 276 277 278 277 275 273 271 270 270 271 272 274 276 277
221 223 225 225 223 221 221 222 223 225 227 230 233 237 240 241 242 243 243 243 243 243 241 238 236 235 236 239 240 242 244 245 248 251 254 256 258 259 261 263 266 268 270 270 270 270 270 271 271 272 271 271 271 271 272 272 273 273 274 274 273 274 274 274 274 275 275 276 277 278 279 279 278 278 277 277 276 275 275 274 274 274 274 275 275 275 275
222 223 224 224 222 222 222 223 224 224 225 227 230 233 237 240 240 239 238 238 239 239 238 237 235 235 236 238 241 244 246 247 250 252 255 257 259 261 262 264 266 268 270 271 272 272 273 273 274 274 274 274 274 273 273 273 274 275 275 276 276 276 276 276 276 276 276 277 277 277 277 280 283 285 284 280 277 273 272 271 270 270 272 275 277 278 279
229 229 228 227 226 225 224 224 225 224 224 225 226 228 231 234 235 233 232 232 234 236 237 237 236 237 239 241 243 246 248 251 252 254 256 258 261 262 264 265 266 267 269 271 272 272 273 273 273 273 274 274 274 274 274 274 275 276 276 277 278 278 278 278 278 277 277 278 278 278 278 280 284 288 289 288 285 279 274 271 271 273 276 279 283 285 279
232 232 232 231 230 229 227 226 226 225 224 224 224 224 225 226 226 226 225 226 229 233 235 236 237 239 241 243 245 247 249 251 253 255 257 259 261 262 264 265 266 267 268 269 270 270 271 272 272 273 273 273 273 273 273 274 274 274 275 276 277 277 278 278 278 278 279 279 279 279 279 280 282 284 286 288 292 293 287 279 275 273 270 269 270 269 258
231 231 231 230 229 227 226 225 225 225 224 222 221 220 220 221 221 221 222 223 226 229 232 234 233 234 236 238 240 242 245 248 251 253 256 257 259 262 263 264 265 266 267 268 269 270 270 271 271 272 272 272 272 272 272 273 273 273 274 274 275 275 276 276 276 277 278 278 279 279 279 279 280 280 280 280 282 284 279 267 255 249 247 249 251 251 249
228 228 227 226 225 223 222 222 223 223 222 220 219 219 218 219 219 220 220 221 221 222 223 225 224 224 227 232 236 241 247 251 254 257 260 262 263 265 266 267 269 270 270 271 272 272 273 273 273 274 274 274 274 274 274 274 274 274 274 274 274 274 274 274 275 275 275 276 276 277 278 277 276 275 273 271 269 267 263 258 254 252 254 258 260 260 260
227 226 224 223 221 220 219 219 220 221 220 217 216 215 215 215 214 213 213 213 213 213 214 217 221 224 230 237 243 250 256 261 264 267 269 270 271 272 272 272 273 273 273 274 275 275 276 276 276 277 277 277 278 278 278 277 277 276 276 275 274 274 274 274 274 274 275 275 275 276 277 277 275 272 269 267 267 267 266 264 263 262 263 264 266 267 269
224 223 222 220 220 220 219 218 217 217 217 215 212 210 209 208 208 207 208 210 211 212 215 219 225 231 238 246 253 258 263 267 271 274 276 277 278 279 278 278 277 277 277 278 278 278 278 278 278 278 278 278 278 279 279 279 279 279 279 278 277 276 275 275 274 275 276 277 277 277 277 277 275 272 269 267 266 268 269 268 266 265 265 265 266 267 269
222 220 218 217 218 218 219 219 218 216 215 213 211 208 208 208 207 208 209 211 213 216 219 224 230 236 244 251 258 264 269 273 276 279 281 282 283 283 283 282 282 282 282 282 281 280 280 280 279 278 278 278 278 278 278 277 276 276 276 276 277 276 276 275 275 276 277 279 281 282 282 278 274 272 270 267 265 263 263 263 263 263 262 263 264 266 267
223 220 218 217 217 219 221 221 220 218 217 216 213 211 210 210 210 209 208 209 212 217 222 228 235 242 250 256 262 270 276 281 285 288 289 289 289 289 288 287 287 286 285 284 283 282 281 281 280 279 278 277 277 277 277 276 275 272 270 269 269 270 272 273 274 276 278 280 282 283 283 280 277 275 272 268 264 261 259 259 261 262 263 264 265 266 268
226 224 221 219 219 222 223 223 221 220 219 218 217 216 214 213 210 208 207 209 214 221 229 238 245 252 257 263 270 277 285 292 297 299 300 299 298 296 294 292 290 289 287 285 284 283 281 280 279 279 278 277 277 276 276 275 273 272 269 267 265 265 267 270 272 275 278 279 280 281 281 280 279 277 271 266 263 261 258 256 257 259 262 266 269 271 273
228 227 226 224 223 223 225 225 223 222 222 222 221 218 216 214 212 209 209 213 220 229 240 251 258 262 266 272 280 288 295 301 304 306 306 306 304 302 299 296 294 291 289 287 285 283 280 279 278 277 277 276 275 275 274 273 271 269 268 267 266 266 267 269 270 272 274 276 278 279 279 279 278 276 272 267 265 265 263 260 258 258 261 265 269 272 274
232 229 227 226 224 225 226 227 226 226 226 227 224 218 214 214 215 216 217 222 231 241 251 259 265 269 273 280 288 294 299 302 305 307 307 307 306 304 302 299 296 293 291 288 285 283 280 278 276 275 275 274 273 272 271 270 268 267 266 267 268 268 269 269 269 270 272 274 276 277 276 275 276 276 274 271 268 268 267 265 262 261 262 266 269 271 273
232 232 230 228 227 227 228 229 229 229 229 230 227 220 214 214 219 224 228 234 242 251 259 264 268 272 276 282 287 293 297 301 305 307 308 308 307 306 304 302 299 296 293 291 288 286 283 280 277 275 274 272 271 270 269 268 267 266 265 266 266 267 268 269 270 271 273 275 276 277 277 277 277 277 276 273 269 268 269 269 267 265 266 268 271 272 273
228 230 230 229 229 230 232 233 232 230 230 231 230 224 219 218 223 229 234 240 247 254 260 265 268 272 276 280 284 289 294 299 303 306 307 308 308 307 306 304 302 299 297 294 292 290 287 285 282 279 277 274 272 271 269 268 267 266 264 264 264 264 265 267 269 272 274 276 277 276 277 279 280 279 277 273 269 267 267 267 266 263 263 266 268 269 270
Height
5578 5581 5584 5588 5591 5595 5599 5603 5607 5611 5614 5618 5623 5626 5629 5631 5635 5640 5645 5648 5651 5654 5656 5659 5663 5666 5669 5672 5675 5678 5681 5685 5688 5690 5693 5697 5701 5705 5709 5712 5716 5719 5723 5726 5729 5731 5732 5734 5736 5738 5740 5742 5744 5746 5748 5750 5752 5754 5755 5757 5758 5760 5762 5763 5764 5766 5766 5767 5768 5769 5769 5769 5769 5768 5768 5767 5766 5765 5763 5762 5760 5758 5756 5755 5753 5753 5754
5579 5582 5585 5589 5592 5596 5601 5605 5610 5613 5615 5617 5619 5623 5626 5630 5635 5639 5643 5647 5651 5653 5655 5658 5661 5665 5668 5671 5673 5677 5681 5684 5687 5690 5692 5695 5698 5702 5706 5710 5713 5717 5720 5723 5725 5727 5729 5731 5733 5735 5737 5739 5741 5743 5746 5748 5750 5752 5753 5755 5756 5758 5759 5761 5762 5763 5764 5764 5765 5767 5767 5767 5767 5766 5766 5765 5764 5763 5762 5761 5759 5757 5755 5753 5752 5751 5751
5580 5583 5586 5589 5593 5597 5602 5606 5610 5613 5614 5615 5618 5622 5627 5631 5635 5638 5642 5645 5648 5650 5653 5656 5660 5664 5667 5670 5673 5677 5680 5683 5686 5689 5691 5694 5696 5699 5703 5707 5710 5713 5717 5719 5722 5724 5726 5728 5730 5732 5735 5737 5739 5741 5744 5746 5748 5749 5751 5752 5754 5755 5757 5758 5759 5760 5761 5762 5763 5764 5764 5764 5764 5764 5764 5763 5762 5761 5760 5759 5758 5756 5754 5753 5751 5750 5750
5581 5584 5588 5592 5596 5600 5604 5608 5610 5612 5615 5619 5621 5624 5628 5632 5635 5638 5640 5643 5646 5649 5652 5654 5658 5662 5666 5669 5673 5676 5679 5682 5685 5687 5690 5693 5696 5699 5702 5704 5707 5710 5713 5716 5719 5721 5723 5726 5728 5731 5733 5735 5737 5739 5742 5744 5745 5747 5748 5750 5751 5753 5754 5755 5757 5758 5758 5759 5760 5761 5761 5762 5761 5761 5761 5761 5760 5759 5758 5758 5757 5756 5754 5752 5751 5750 5749
5583 5587 5591 5594 5598 5603 5606 5609 5610 5613 5618 5622 5624 5626 5630 5633 5636 5638 5640 5642 5644 5648 5651 5653 5658 5662 5665 5668 5672 5675 5678 5681 5683 5686 5688 5691 5694 5697 5700 5703 5706 5708 5711 5713 5715 5718 5720 5723 5726 5728 5730 5732 5734 5736 5738 5740 5742 5743 5745 5746 5748 5749 5751 5752 5754 5755 5755 5756 5757 5758 5758 5758 5758 5758 5758 5758 5758 5757 5756 5756 5755 5755 5753 5752 5751 5750 5749
5585 5589 5592 5596 5600 5604 5607 5609 5613 5617 5620 5623 5625 5628 5631 5634 5637 5638 5640 5642 5644 5648 5651 5654 5658 5662 5665 5668 5671 5674 5677 5680 5682 5684 5686 5689 5691 5694 5697 5700 5703 5706 5708 5710 5712 5715 5718 5721 5722 5724 5726 5728 5730 5732 5734 5736 5738 5740 5741 5743 5745 5746 5747 5749 5750 5751 5752 5754 5754 5755 5755 5755 5755 5756 5756 5756 5756 5755 5754 5754 5754 5753 5752 5751 5750 5749 5748
5586 5589 5593 5597 5601 5604 5608 5611 5615 5618 5621 5623 5626 5628 5631 5634 5637 5638 5641 5643 5645 5648 5652 5656 5659 5661 5664 5666 5669 5672 5674 5677 5680 5682 5684 5687 5689 5692 5694 5696 5699 5703 5706 5708 5710 5712 5714 5716 5717 5719 5721 5723 5726 5728 5730 5732 5735 5737 5738 5740 5742 5743 5745 5746 5747 5748 5750 5751 5751 5752 5752 5752 5752 5753 5754 5754 5754 5753 5753 5752 5752 5752 5751 5750 5749 5748 5748
5588 5591 5594 5597 5600 5604 5609 5613 5616 5618 5621 5625 5626 5628 5631 5633 5635 5638 5641 5643 5645 5649 5652 5656 5658 5661 5663 5665 5667 5670 5672 5675 5677 5680 5682 5685 5687 5689 5691 5693 5695 5698 5701 5705 5707 5708 5708 5710 5712 5715 5717 5719 5722 5724 5726 5729 5731 5733 5735 5737 5739 5740 5742 5743 5744 5746 5747 5748 5748 5749 5749 5749 5750 5751 5751 5752 5751 5751 5751 5750 5750 5750 5749 5748 5747 5747 5746
5591 5593 5594 5597 5601 5604 5609 5613 5616 5619 5622 5625 5628 5629 5631 5633 5635 5638 5641 5643 5646 5649 5651 5654 5657 5660 5663 5665 5667 5669 5671 5673 5676 5678 5680 5683 5685 5686 5688 5691 5693 5694 5696 5700 5703 5704 5704 5705 5708 5711 5713 5716 5719 5721 5723 5725 5727 5730 5732 5734 5736 5738 5739 5740 5742 5744 5744 5745 5746 5746 5746 5747 5748 5748 5749 5749 5749 5749 5748 5748 5748 5748 5747 5746 5745 5745 5744
5594 5595 5596 5597 5600 5604 5607 5611 5616 5620 5622 5624 5627 5628 5629 5632 5636 5638 5641 5644 5646 5648 5651 5653 5656 5659 5662 5664 5666 5668 5671 5673 5676 5677 5679 5681 5682 5683 5685 5687 5690 5693 5695 5697 5700 5701 5702 5704 5707 5709 5712 5714 5716 5718 5720 5722 5725 5727 5729 5731 5733 5735 5736 5738 5740 5741 5742 5742 5743 5743 5744 5745 5745 5746 5746 5747 5747 5746 5746 5746 5746 5746 5745 5744 5743 5743 5742
5595 5598 5599 5600 5601 5604 5607 5611 5615 5620 5622 5624 5626 5627 5629 5632 5636 5638 5641 5644 5646 5648 5651 5653 5655 5658 5661 5663 5665 5667 5670 5673 5675 5677 5678 5679 5679 5680 5682 5685 5688 5692 5694 5695 5698 5700 5702 5704 5707 5709 5711 5712 5714 5716 5718 5720 5722 5724 5726 5728 5730 5732 5734 5736 5737 5738 5739 5739 5740 5740 5742 5743 5743 5744 5744 5744 5744 5744 5744 5744 5744 5744 5743 5743 5742 5741 5740
5596 5598 5600 5602 5604 5606 5609 5612 5615 5618 5622 5624 5626 5628 5630 5633 5636 5639 5642 5644 5647 5649 5652 5654 5656 5658 5661 5662 5664 5666 5668 5671 5673 5675 5677 5677 5678 5680 5681 5682 5685 5688 5689 5690 5694 5697 5699 5702 5704 5705 5708 5710 5711 5713 5715 5716 5718 5721 5724 5726 5728 5729 5731 5733 5735 5736 5736 5737 5737 5738 5739 5740 5741 5741 5742 5742 5742 5742 5742 5742 5741 5741 5741 5741 5740 5739 5738
5596 5598 5601 5604 5606 5608 5611 5614 5615 5618 5622 5625 5628 5631 5633 5636 5638 5640 5642 5645 5648 5650 5652 5654 5657 5659 5661 5662 5664 5665 5667 5668 5670 5673 5675 5676 5677 5678 5679 5680 5682 5684 5685 5688 5692 5695 5697 5699 5701 5702 5704 5706 5708 5710 5711 5712 5714 5717 5721 5724 5725 5726 5728 5730 5732 5734 5734 5734 5735 5736 5737 5737 5738 5739 5739 5739 5739 5739 5739 5739 5739 5739 5739 5738 5738 5737 5736
5597 5600 5602 5605 5608 5610 5612 5615 5617 5620 5623 5626 5629 5633 5635 5637 5638 5641 5643 5646 5648 5651 5653 5654 5657 5659 5661 5662 5663 5665 5666 5667 5668 5671 5672 5674 5675 5676 5677 5678 5680 5682 5685 5688 5691 5693 5696 5698 5700 5701 5702 5703 5706 5709 5711 5712 5713 5715 5718 5720 5721 5721 5723 5726 5730 5732 5732 5732 5733 5734 5734 5735 5735 5736 5736 5737 5737 5737 5737 5737 5736 5736 5736 5736 5736 5735 5734
5599 5602 5604 5607 5609 5611 5613 5616 5619 5621 5624 5627 5630 5633 5635 5637 5639 5641 5643 5646 5648 5651 5652 5654 5657 5658 5660 5661 5663 5665 5666 5666 5667 5669 5670 5671 5672 5674 5675 5676 5678 5681 5685 5688 5691 5693 5696 5698 5699 5701 5702 5703 5705 5707 5710 5712 5713 5713 5714 5714 5714 5716 5719 5723 5726 5728 5728 5729 5730 5731 5731 5732 5733 5733 5734 5734 5735 5735 5735 5734 5734 5733 5734 5734 5733 5732 5731
5601 5603 5605 5607 5609 5612 5614 5617 5620 5622 5625 5628 5630 5633 5635 5637 5639 5641 5643 5645 5648 5650 5651 5653 5655 5657 5658 5659 5660 5663 5665 5665 5666 5667 5668 5670 5672 5674 5675 5675 5677 5680 5684 5687 5691 5693 5695 5697 5699 5700 5701 5702 5702 5703 5704 5706 5709 5711 5711 5710 5710 5713 5717 5719 5721 5723 5724 5725 5727 5728 5728 5729 5730 5730 5731 5732 5732 5732 5732 5731 5731 5730 5731 5731 5730 5730 5728
5601 5603 5605 5607 5609 5612 5615 5618 5621 5624 5627 5629 5631 5633 5636 5638 5639 5641 5643 5645 5647 5649 5651 5652 5653 5655 5657 5657 5659 5662 5664 5664 5665 5666 5667 5669 5672 5673 5673 5674 5676 5680 5683 5686 5689 5692 5694 5695 5697 5698 5699 5701 5702 5702 5702 5703 5705 5707 5709 5710 5711 5713 5715 5716 5718 5721 5722 5723 5724 5724 5725 5726 5727 5728 5728 5729 5729 5729 5729 5728 5728 5727 5727 5728 5727 5726 5725
5602 5603 5605 5608 5610 5612 5615 5618 5621 5624 5627 5629 5632 5634 5636 5637 5639 5641 5643 5645 5647 5649 5650 5650 5652 5655 5656 5657 5660 5661 5660 5661 5664 5665 5666 5668 5670 5671 5672 5674 5676 5679 5682 5685 5688 5690 5692 5693 5694 5696 5697 5699 5700 5701 5702 5703 5703 5704 5705 5708 5710 5712 5712 5714 5718 5720 5721 5721 5721 5722 5722 5723 5724 5725 5725 5726 5726 5726 5726 5725 5724 5724 5724 5725 5724 5723 5722
5602 5604 5606 5608 5610 5613 5615 5618 5620 5623 5626 5629 5631 5633 5635 5637 5639 5640 5642 5644 5646 5648 5648 5649 5652 5654 5655 5656 5659 5659 5657 5659 5663 5664 5664 5666 5669 5670 5672 5674 5676 5679 5681 5684 5686 5688 5689 5691 5693 5694 5695 5697 5699 5699 5700 5701 5702 5703 5704 5706 5708 5709 5710 5713 5715 5717 5718 5718 5719 5719 5720 5721 5721 5721 5722 5722 5723 5723 5722 5722 5721 5720 5721 5721 5721 5720 5719
5603 5605 5607 5609 5611 5613 5616 5618 5620 5623 5625 5628 5630 5632 5634 5636 5637 5639 5641 5643 5645 5647 5648 5648 5650 5653 5654 5655 5658 5658 5657 5658 5661 5662 5663 5666 5668 5669 5671 5673 5675 5678 5680 5682 5684 5686 5688 5689 5691 5692 5693 5695 5697 5698 5698 5699 5700 5702 5703 5704 5704 5706 5709 5710 5712 5712 5713 5714 5715 5716 5717 5718 5718 5718 5719 5719 5719 5719 5718 5718 5717 5717 5717 5716 5716 5716 5715
5605 5606 5608 5609 5611 5613 5615 5617 5619 5621 5624 5627 5629 5631 5632 5634 5636 5638 5640 5642 5644 5646 5647 5647 5649 5652 5653 5654 5656 5657 5657 5657 5659 5661 5663 5665 5667 5669 5670 5672 5674 5676 5678 5680 5682 5684 5685 5687 5688 5689 5691 5692 5694 5696 5697 5698 5699 5700 5701 5702 5702 5704 5706 5707 5708 5709 5710 5711 5712 5713 5714 5714 5715 5715 5715 5715 5715 5715 5714 5713 5713 5713 5712 5712 5712 5712 5711
5606 5607 5609 5610 5611 5613 5614 5616 5617 5620 5622 5625 5628 5629 5631 5634 5636 5637 5638 5640 5643 5644 5645 5646 5648 5650 5652 5653 5655 5656 5657 5658 5659 5660 5662 5664 5666 5667 5669 5671 5673 5674 5676 5677 5679 5681 5682 5684 5686 5687 5688 5689 5691 5693 5694 5695 5696 5698 5699 5700 5701 5703 5704 5705 5706 5707 5707 5708 5709 5710 5710 5711 5711 5711 5712 5712 5711 5711 5710 5710 5709 5709 5708 5708 5708 5708 5707
5608 5609 5609 5610 5611 5613 5614 5615 5616 5618 5621 5624 5627 5629 5631 5633 5635 5636 5637 5639 5641 5642 5643 5645 5648 5650 5651 5653 5654 5655 5657 5658 5659 5660 5661 5663 5665 5666 5668 5669 5671 5673 5674 5675 5677 5678 5680 5681 5683 5684 5686 5687 5688 5689 5690 5692 5693 5695 5696 5697 5698 5700 5701 5702 5702 5703 5703 5704 5705 5706 5706 5707 5707 5707 5708 5707 5707 5707 5706 5706 5705 5705 5704 5704 5703 5703 5703
5609 5610 5610 5611 5612 5614 5615 5616 5617 5618 5620 5623 5625 5628 5630 5631 5633 5635 5636 5638 5640 5641 5643 5645 5647 5649 5651 5652 5653 5654 5656 5657 5659 5660 5661 5663 5664 5666 5667 5668 5670 5671 5673 5674 5675 5676 5678 5679 5680 5681 5683 5684 5685 5686 5687 5688 5690 5691 5693 5694 5695 5696 5697 5698 5698 5699 5700 5700 5701 5701 5702 5702 5703 5703 5703 5703 5703 5702 5702 5701 5701 5700 5700 5699 5699 5699 5698
5610 5610 5611 5612 5613 5615 5616 5618 5619 5620 5621 5623 5625 5627 5629 5631 5633 5634 5636 5638 5639 5641 5642 5645 5647 5648 5649 5651 5652 5653 5654 5656 5658 5660 5661 5662 5663 5665 5666 5667 5668 5670 5671 5672 5673 5674 5675 5676 5678 5679 5680 5681 5682 5683 5684 5685 5686 5688 5689 5690 5691 5692 5693 5694 5695 5695 5696 5696 5697 5697 5697 5698 5698 5698 5697 5697 5697 5697 5697 5696 5696 5695 5695 5695 5694 5694 5694
5611 5612 5612 5613 5615 5616 5617 5618 5619 5620 5622 5623 5625 5627 5629 5631 5632 5634 5635 5637 5639 5640 5642 5644 5646 5647 5648 5649 5651 5652 5653 5655 5657 5658 5660 5661 5663 5664 5665 5666 5667 5668 5669 5670 5670 5671 5673 5674 5675 5676 5677 5678 5679 5680 5682 5682 5683 5684 5685 5686 5687 5688 5689 5690 5690 5691 5692 5692 5692 5692 5692 5692 5693 5692 5692 5692 5692 5691 5691 5691 5691 5690 5690 5689 5689 5689 5689
5612 5613 5614 5615 5616 5617 5618 5618 5619 5621 5622 5623 5625 5626 5628 5630 5632 5633 5635 5636 5638 5639 5641 5643 5645 5646 5647 5648 5650 5651 5652 5653 5655 5656 5658 5659 5661 5662 5664 5664 5665 5666 5666 5667 5668 5669 5670 5671 5672 5673 5674 5675 5676 5677 5678 5679 5680 5681 5681 5682 5683 5683 5684 5684 5685 5685 5686 5686 5686 5686 5687 5687 5686 5686 5686 5686 5686 5686 5685 5685 5685 5684 5684 5684 5684 5683 5683
5613 5613 5614 5615 5616 5617 5618 5619 5620 5621 5622 5623 5624 5626 5627 5629 5631 5632 5634 5635 5637 5639 5640 5642 5643 5644 5645 5647 5649 5650 5651 5651 5652 5654 5655 5656 5658 5660 5661 5662 5663 5664 5665 5665 5666 5667 5668 5669 5669 5670 5670 5671 5672 5672 5673 5674 5675 5676 5677 5677 5678 5678 5679 5679 5680 5680 5680 5680 5681 5681 5681 5681 5680 5680 5680 5680 5680 5680 5680 5680 5679 5679 5679 5678 5678 5678 5677
5614 5614 5614 5615 5616 5618 5619 5619 5620 5621 5621 5622 5624 5625 5626 5628 5629 5631 5632 5634 5635 5637 5639 5640 5641 5642 5644 5645 5647 5648 5649 5649 5651 5652 5653 5654 5655 5656 5658 5659 5660 5661 5662 5663 5663 5664 5665 5666 5666 5666 5667 5668 5668 5668 5669 5670 5670 5671 5672 5672 5673 5673 5674 5674 5675 5675 5675 5675 5675 5675 5675 5675 5675 5675 5675 5675 5674 5674 5674 5674 5673 5673 5673 5673 5672 5672 5672
5615 5616 5615 5616 5617 5617 5619 5620 5620 5621 5621 5623 5624 5625 5626 5627 5628 5630 5631 5633 5634 5636 5637 5638 5640 5641 5642 5643 5645 5646 5646 5647 5649 5650 5651 5652 5653 5653 5654 5656 5657 5658 5659 5660 5660 5661 5662 5662 5663 5663 5664 5664 5665 5665 5665 5666 5666 5666 5667 5667 5668 5668 5669 5669 5670 5670 5670 5670 5670 5670 5670 5670 5670 5670 5670 5670 5669 5669 5668 5668 5668 5668 5667 5667 5667 5666 5665
5616 5617 5617 5616 5617 5617 5618 5619 5620 5620 5621 5622 5624 5625 5626 5627 5628 5629 5630 5632 5633 5634 5635 5637 5638 5639 5640 5641 5643 5643 5644 5645 5647 5648 5649 5650 5651 5651 5652 5653 5654 5655 5655 5656 5657 5658 5658 5659 5660 5660 5661 5661 5661 5661 5662 5662 5662 5662 5662 5663 5663 5663 5664 5664 5664 5665 5665 5665 5665 5665 5665 5665 5665 5665 5665 5664 5664 5663 5663 5663 5663 5662 5662 5661 5661 5661 5660
5615 5616 5617 5617 5616 5616 5617 5618 5619 5620 5621 5621 5623 5624 5625 5626 5627 5628 5629 5631 5632 5633 5634 5635 5636 5637 5638 5639 5641 5642 5643 5644 5645 5646 5648 5648 5649 5650 5650 5650 5651 5651 5652 5653 5653 5654 5654 5655 5655 5656 5657 5657 5657 5657 5657 5658 5658 5658 5658 5658 5658 5659 5659 5659 5659 5659 5660 5660 5660 5660 5660 5660 5660 5659 5659 5659 5658 5658 5657 5657 5657 5656 5656 5656 5656 5655 5654
5613 5615 5616 5616 5616 5616 5616 5618 5619 5620 5621 5621 5621 5623 5624 5625 5626 5627 5629 5630 5631 5632 5633 5633 5634 5636 5637 5638 5639 5640 5641 5642 5643 5644 5645 5646 5647 5647 5648 5648 5649 5649 5649 5649 5650 5650 5651 5651 5652 5652 5653 5653 5654 5654 5654 5654 5654 5654 5654 5654 5655 5655 5655 5655 5655 5655 5655 5655 5655 5655 5654 5654 5654 5654 5654 5653 5653 5653 5652 5652 5651 5650 5650 5650 5650 5650 5649
5612 5613 5615 5615 5615 5615 5616 5617 5618 5619 5620 5620 5620 5621 5623 5624 5625 5626 5628 5629 5630 5631 5632 5632 5633 5634 5635 5636 5637 5639 5640 5641 5641 5642 5643 5644 5644 5645 5645 5646 5646 5647 5647 5647 5647 5648 5648 5649 5649 5649 5649 5650 5650 5650 5651 5651 5651 5651 5651 5651 5651 5651 5651 5650 5650 5650 5650 5650 5650 5649 5649 5649 5649 5648 5648 5648 5647 5647 5646 5646 5647 5646 5645 5644 5645 5645 5644
5611 5612 5613 5614 5614 5614 5615 5616 5617 5618 5618 5619 5619 5620 5622 5623 5624 5625 5626 5627 5628 5629 5630 5631 5632 5633 5634 5635 5636 5637 5638 5639 5639 5640 5641 5642 5642 5643 5643 5644 5644 5644 5644 5645 5645 5646 5646 5646 5646 5646 5646 5646 5646 5647 5647 5647 5647 5647 5647 5647 5647 5646 5646 5646 5646 5646 5646 5646 5645 5645 5644 5643 5643 5643 5642 5642 5642 5642 5641 5641 5642 5642 5641 5640 5640 5640 5640
5609 5610 5611 5612 5613 5613 5614 5615 5616 5617 5617 5618 5619 5619 5620 5621 5622 5623 5624 5625 5626 5627 5629 5630 5631 5632 5633 5633 5634 5635 5636 5637 5637 5638 5639 5640 5641 5641 5641 5641 5641 5642 5642 5643 5643 5643 5643 5643 5643 5643 5643 5643 5643 5643 5643 5643 5643 5643 5643 5643 5642 5642 5642 5642 5642 5641 5641 5641 5641 5640 5640 5639 5638 5638 5637 5637 5638 5638 5637 5637 5637 5637 5637 5636 5636 5635 5635
5607 5608 5610 5611 5612 5612 5613 5614 5614 5615 5616 5617 5617 5618 5619 5620 5620 5621 5622 5623 5624 5625 5626 5628 5629 5630 5631 5632 5633 5634 5634 5635 5636 5636 5637 5638 5638 5639 5639 5639 5639 5638 5639 5640 5640 5640 5640 5640 5640 5640 5640 5640 5640 5639 5639 5639 5639 5639 5638 5638 5638 5638 5638 5638 5637 5637 5637 5637 5636 5636 5635 5635 5634 5634 5633 5633 5633 5633 5633 5632 5632 5633 5633 5632 5631 5630 5631
5606 5607 5608 5609 5610 5611 5611 5612 5613 5613 5614 5615 5616 5617 5617 5618 5619 5619 5620 5621 5622 5623 5624 5625 5626 5628 5628 5629 5630 5631 5632 5633 5633 5634 5635 5635 5636 5636 5636 5636 5636 5635 5635 5636 5636 5636 5636 5636 5636 5636 5636 5636 5636 5636 5636 5635 5635 5635 5634 5634 5634 5634 5633 5633 5633 5633 5632 5632 5632 5632 5631 5631 5630 5630 5629 5629 5629 5628 5628 5628 5628 5628 5628 5627 5626 5626 5626
5605 5606 5606 5607 5608 5609 5610 5611 5611 5612 5613 5613 5614 5615 5616 5616 5617 5618 5619 5620 5620 5621 5622 5623 5624 5625 5626 5627 5628 5629 5630 5630 5631 5632 5632 5632 5633 5633 5633 5634 5633 5633 5632 5632 5633 5633 5633 5633 5633 5633 5633 5633 5633 5632 5632 5632 5632 5631 5630 5630 5630 5629 5629 5629 5629 5628 5628 5628 5628 5627 5627 5627 5627 5626 5626 5626 5625 5625 5625 5624 5624 5624 5624 5623 5623 5622 5622
5603 5604 5605 5606 5607 5608 5608 5609 5610 5610 5611 5612 5613 5613 5614 5615 5615 5616 5617 5618 5619 5619 5620 5622 5623 5624 5624 5625 5626 5627 5627 5628 5629 5629 5629 5630 5630 5630 5630 5631 5631 5630 5630 5630 5630 5630 5630 5630 5630 5630 5629 5629 5629 5629 5629 5628 5628 5628 5627 5626 5626 5626 5625 5625 5625 5624 5624 5624 5624 5624 5623 5623 5623 5623 5622 5622 5622 5621 5621 5621 5620 5620 5620 5620 5619 5619 5619
5602 5602 5603 5604 5605 5606 5607 5607 5608 5609 5609 5610 5611 5612 5613 5613 5614 5615 5616 5617 5617 5618 5619 5620 5621 5622 5623 5623 5624 5625 5625 5626 5626 5627 5627 5627 5627 5628 5628 5628 5628 5628 5627 5627 5627 5627 5627 5626 5626 5626 5626 5626 5626 5625 5625 5625 5624 5624 5623 5623 5622 5622 5621 5621 5621 5621 5621 5620 5620 5620 5620 5620 5620 5619 5619 5619 5619 5618 5618 5617 5617 5617 5617 5617 5617 5617 5617
5600 5601 5602 5603 5603 5604 5605 5606 5606 5607 5608 5609 5609 5610 5611 5612 5613 5614 5614 5615 5616 5617 5618 5619 5620 5620 5621 5622 5622 5623 5623 5624 5624 5625 5625 5625 5625 5626 5626 5625 5626 5625 5625 5624 5624 5624 5624 5624 5623 5623 5623 5622 5622 5621 5621 5621 5620 5620 5619 5618 5618 5618 5617 5617 5617 5617 5617 5617 5617 5616 5616 5616 5617 5616 5616 5616 5616 5616 5616 5615 5615 5615 5615 5615 5615 5615 5615
5598 5599 5600 5601 5602 5603 5603 5604 5605 5605 5606 5607 5608 5608 5609 5610 5611 5612 5613 5614 5614 5615 5616 5617 5618 5619 5619 5620 5620 5621 5621 5622 5622 5623 5623 5623 5623 5623 5623 5623 5623 5623 5622 5622 5621 5621 5620 5620 5620 5620 5619 5618 5618 5617 5617 5617 5616 5615 5615 5614 5614 5613 5613 5613 5613 5612 5613 5613 5613 5613 5613 5613 5613 5613 5613 5613 5613 5613 5613 5613 5613 5613 5613 5613 5613 5613 5613
5597 5597 5598 5599 5600 5601 5601 5602 5603 5604 5604 5605 5606 5607 5608 5609 5610 5610 5611 5612 5613 5614 5615 5615 5616 5617 5617 5618 5619 5619 5619 5620 5620 5620 5620 5620 5620 5620 5620 5620 5619 5619 5618 5618 5618 5617 5617 5616 5616 5616 5615 5614 5614 5613 5613 5613 5612 5611 5611 5610 5610 5610 5609 5609 5609 5608 5608 5609 5609 5609 5609 5609 5610 5610 5610 5610 5610 5610 5610 5610 5610 5610 5611 5610 5610 5610 5610
5595 5596 5597 5597 5598 5599 5600 5601 5601 5602 5603 5604 5605 5606 5606 5607 5608 5609 5610 5611 5611 5612 5613 5614 5614 5615 5616 5616 5616 5617 5617 5617 5617 5617 5617 5617 5617 5616 5616 5616 5615 5615 5615 5614 5614 5613 5613 5612 5612 5612 5611 5611 5610 5610 5609 5609 5608 5607 5607 5607 5606 5606 5606 5605 5605 5605 5605 5604 5605 5605 5606 5606 5606 5606 5606 5606 5607 5607 5606 5606 5606 5607 5607 5607 5606 5606 5606
5593 5594 5595 5596 5596 5597 5598 5599 5600 5601 5602 5603 5603 5604 5605 5606 5607 5608 5609 5609 5610 5611 5611 5612 5613 5613 5614 5614 5614 5614 5614 5614 5614 5614 5614 5614 5613 5613 5613 5612 5611 5611 5611 5610 5610 5609 5609 5608 5608 5608 5607 5607 5606 5606 5606 5605 5605 5605 5604 5603 5603 5603 5602 5602 5602 5602 5602 5601 5601 5601 5602 5602 5602 5602 5602 5602 5603 5603 5602 5602 5602 5603 5603 5603 5602 5603 5602
5592 5592 5593 5594 5595 5596 5597 5597 5598 5599 5600 5601 5602 5603 5604 5604 5605 5606 5607 5608 5609 5609 5610 5610 5611 5611 5612 5612 5612 5612 5612 5612 5611 5611 5611 5610 5610 5610 5609 5608 5608 5607 5607 5606 5605 5605 5605 5604 5604 5604 5603 5603 5603 5602 5602 5602 5602 5602 5601 5601 5601 5600 5600 5600 5600 5600 5599 5599 5599 5599 5599 5599 5599 5598 5598 5598 5598 5598 5598 5598 5598 5598 5598 5598 5598 5598 5598
5590 5591 5591 5592 5593 5594 5595 5596 5597 5598 5599 5600 5601 5601 5602 5603 5604 5605 5606 5606 5607 5608 5608 5608 5609 5609 5609 5609 5609 5609 5609 5609 5608 5608 5608 5607 5607 5606 5606 5605 5604 5604 5603 5602 5602 5601 5601 5600 5600 5599 5599 5599 5599 5598 5598 5598 5598 5598 5598 5598 5598 5598 5598 5597 5597 5597 5597 5596 5596 5596 5596 5595 5595 5595 5595 5594 5594 5593 5593 5593 5593 5593 5593 5594 5594 5594 5593
5588 5589 5590 5590 5591 5592 5593 5594 5595 5596 5597 5598 5599 5600 5600 5601 5602 5603 5604 5605 5605 5606 5606 5606 5607 5607 5607 5607 5607 5606 5606 5606 5606 5605 5605 5604 5604 5603 5602 5601 5601 5600 5599 5598 5598 5597 5597 5596 5596 5595 5595 5595 5595 5594 5594 5594 5594 5594 5594 5594 5594 5595 5595 5594 5594 5594 5593 5593 5593 5593 5593 5592 5591 5591 5591 5591 5590 5590 5589 5589 5589 5589 5589 5590 5590 5590 5589
5587 5587 5588 5588 5589 5590 5591 5592 5593 5594 5595 5596 5597 5598 5599 5599 5600 5601 5602 5603 5603 5604 5604 5604 5604 5604 5604 5604 5604 5604 5603 5603 5603 5602 5602 5601 5601 5600 5599 5598 5597 5596 5596 5595 5594 5593 5593 5592 5592 5591 5591 5591 5590 5590 5590 5590 5590 5590 5590 5590 5590 5591 5591 5590 5590 5590 5590 5590 5589 5589 5589 5589 5588 5588 5587 5587 5587 5586 5586 5585 5585 5585 5586 5586 5586 5586 5586
5584 5585 5586 5587 5587 5588 5589 5590 5591 5592 5593 5594 5595 5596 5597 5597 5598 5599 5600 5601 5601 5601 5602 5602 5602 5602 5602 5602 5602 5601 5601 5600 5600 5599 5599 5598 5598 5597 5596 5595 5594 5593 5592 5591 5590 5589 5589 5588 5587 5587 5586 5586 5586 5585 5585 5586 5586 5586 5586 5586 5586 5587 5586 5586 5586 5586 5586 5585 5585 5585 5585 5584 5584 5584 5583 5583 5582 5582 5582 5582 5582 5582 5582 5582 5582 5583 5583
5582 5583 5584 5585 5585 5586 5587 5588 5589 5589 5590 5591 5592 5593 5594 5595 5596 5596 5597 5598 5599 5599 5599 5599 5600 5600 5599 5599 5599 5599 5599 5598 5597 5597 5596 5595 5595 5594 5593 5592 5591 5590 5589 5588 5587 5586 5585 5584 5583 5582 5582 5581 5581 5581 5581 5581 5581 5581 5581 5582 5582 5582 5582 5581 5581 5581 5581 5581 5581 5580 5580 5580 5580 5579 5579 5579 5579 5578 5578 5578 5578 5578 5579 5579 5579 5579 5579